AAL88 KDFW-LOWW

Flight info

Callsign AAL88
Flight time N/A
Altitude 37000
Route FORCK3 FORCK ELD Q32 CRAMM BAZOO Q66 ALEAN KW42U HURTS CRPLR MGERK Q133 LEEAH CYN SAILN Q97 BEEKN EBONY N433B ELSIR 5050N 5140N 5130N 5120N DINIM ELSOX ARKIL SIDDI DAWLY L620 SAM M140 DVR UL9 KONAN UL607 KOK MATUG AMASI BOMBI DETEV DINKU BESNI ALUTU AKIMA MASUR
Aircraft B772/H-SDE2E3FGHIJ5LORVWXY/LB1D1

Departure

Time N/A
Airport Dallas Fort Worth International Airport (KDFW)

Arrival

Time 2026-04-25 22:06
Airport Vienna International Airport (LOWW)
Time Latitude Longitude Altitude Speed Heading
2026-04-25 18:47 51.09530 -23.36125 36069 ft 519 kts 91°
2026-04-25 18:48 51.09364 -23.24646 36070 ft 519 kts 92°
2026-04-25 18:48 51.09187 -23.13173 36074 ft 519 kts 92°
2026-04-25 18:49 51.08998 -23.01705 36074 ft 518 kts 92°
2026-04-25 18:49 51.08798 -22.90241 36072 ft 518 kts 92°
2026-04-25 18:50 51.08590 -22.78864 36079 ft 518 kts 92°
2026-04-25 18:50 51.08368 -22.67415 36073 ft 518 kts 92°
2026-04-25 18:51 51.08213 -22.59759 36075 ft 518 kts 92°
2026-04-25 18:51 51.07891 -22.44540 36076 ft 517 kts 92°
2026-04-25 18:52 51.07638 -22.33189 36067 ft 517 kts 92°
2026-04-25 18:52 51.07374 -22.21801 36076 ft 514 kts 93°
2026-04-25 18:53 51.07098 -22.10451 36077 ft 513 kts 93°
2026-04-25 18:53 51.06813 -21.99127 36080 ft 512 kts 93°
2026-04-25 18:54 51.06367 -21.82240 36082 ft 512 kts 93°
2026-04-25 18:55 51.06055 -21.70942 36084 ft 512 kts 93°
2026-04-25 18:55 51.05787 -21.61554 36084 ft 511 kts 93°
2026-04-25 18:56 51.05496 -21.51655 36085 ft 511 kts 93°
2026-04-25 18:57 51.05158 -21.40448 36085 ft 511 kts 94°
2026-04-25 18:57 51.04806 -21.29163 36088 ft 511 kts 94°
2026-04-25 18:58 51.04444 -21.17888 36083 ft 511 kts 94°
2026-04-25 18:58 51.03878 -21.00950 36090 ft 512 kts 94°
2026-04-25 18:59 51.03086 -20.78383 36091 ft 513 kts 94°
2026-04-25 19:00 51.02462 -20.61401 36098 ft 514 kts 95°
2026-04-25 19:01 51.01887 -20.46327 36098 ft 514 kts 95°
2026-04-25 19:01 51.01370 -20.33169 36094 ft 514 kts 95°
2026-04-25 19:02 51.00757 -20.18032 36097 ft 513 kts 96°
2026-04-25 19:03 51.00128 -20.02974 36104 ft 513 kts 96°
2026-04-25 19:03 51.00122 -19.89793 36099 ft 515 kts 90°
2026-04-25 19:04 51.00529 -19.72737 36109 ft 516 kts 90°
2026-04-25 19:05 51.00963 -19.49972 36110 ft 516 kts 90°
2026-04-25 19:06 51.01148 -19.38664 36109 ft 516 kts 90°
2026-04-25 19:06 51.01388 -19.22951 36098 ft 516 kts 91°
2026-04-25 19:07 51.01628 -19.05874 36109 ft 515 kts 91°
2026-04-25 19:08 51.01843 -18.88802 36117 ft 515 kts 91°
2026-04-25 19:09 51.02071 -18.68043 36109 ft 515 kts 91°
2026-04-25 19:10 51.02247 -18.49103 36115 ft 513 kts 92°
2026-04-25 19:10 51.02337 -18.37785 36124 ft 512 kts 92°
2026-04-25 19:11 51.02416 -18.26468 36119 ft 512 kts 92°
2026-04-25 19:11 51.02484 -18.15243 36123 ft 512 kts 92°
2026-04-25 19:12 51.02542 -18.03943 36126 ft 511 kts 92°
2026-04-25 19:12 51.02588 -17.92653 36124 ft 511 kts 92°
2026-04-25 19:13 51.02624 -17.81359 36129 ft 511 kts 92°
2026-04-25 19:13 51.02649 -17.70071 36124 ft 511 kts 92°
2026-04-25 19:14 51.02663 -17.58870 36133 ft 510 kts 93°
2026-04-25 19:14 51.02666 -17.47608 36134 ft 510 kts 93°
2026-04-25 19:15 51.02658 -17.36346 36132 ft 510 kts 93°
2026-04-25 19:15 51.02640 -17.25090 36132 ft 510 kts 93°
2026-04-25 19:16 51.02611 -17.13912 36139 ft 509 kts 93°
2026-04-25 19:16 51.02571 -17.02669 36139 ft 509 kts 93°
2026-04-25 19:17 51.02520 -16.91442 36147 ft 508 kts 94°
2026-04-25 19:17 51.02458 -16.80224 36147 ft 508 kts 94°
2026-04-25 19:18 51.02386 -16.69017 36139 ft 507 kts 94°
2026-04-25 19:18 51.02304 -16.57888 36152 ft 507 kts 94°
2026-04-25 19:19 51.02210 -16.46685 36150 ft 507 kts 94°
2026-04-25 19:19 51.02106 -16.35482 36157 ft 507 kts 94°
2026-04-25 19:20 51.01991 -16.24268 36148 ft 508 kts 94°
2026-04-25 19:20 51.01866 -16.13058 36160 ft 508 kts 94°
2026-04-25 19:21 51.01729 -16.01846 36161 ft 508 kts 94°
2026-04-25 19:21 51.01505 -15.85092 36164 ft 508 kts 94°
2026-04-25 19:22 51.01342 -15.73864 36156 ft 509 kts 95°
2026-04-25 19:23 51.01077 -15.57023 36165 ft 509 kts 95°
2026-04-25 19:23 51.00789 -15.40249 36167 ft 509 kts 95°
2026-04-25 19:24 51.00583 -15.29038 36180 ft 509 kts 95°
2026-04-25 19:25 51.00139 -15.06556 36177 ft 509 kts 95°
2026-04-25 19:25 50.99936 -14.95390 36178 ft 510 kts 94°
2026-04-25 19:26 50.99979 -14.84117 36183 ft 511 kts 92°
2026-04-25 19:26 51.00067 -14.72832 36183 ft 511 kts 93°
2026-04-25 19:27 51.00102 -14.63464 36183 ft 511 kts 93°
2026-04-25 19:27 51.00110 -14.50281 36183 ft 511 kts 93°
2026-04-25 19:28 51.00101 -14.39090 36187 ft 511 kts 93°
2026-04-25 19:28 51.00084 -14.27815 36175 ft 510 kts 93°
2026-04-25 19:29 51.00058 -14.16548 36189 ft 510 kts 94°
2026-04-25 19:29 51.00022 -14.05276 36190 ft 511 kts 94°
2026-04-25 19:30 50.99916 -13.94009 36192 ft 510 kts 96°
2026-04-25 19:30 50.99538 -13.82747 36428 ft 511 kts 97°
2026-04-25 19:31 50.99318 -13.77119 36657 ft 510 kts 97°
2026-04-25 19:31 50.99102 -13.71502 36933 ft 509 kts 96°
2026-04-25 19:31 50.98897 -13.65972 37122 ft 509 kts 96°
2026-04-25 19:31 50.98695 -13.60348 37168 ft 511 kts 96°
2026-04-25 19:32 50.98299 -13.49102 37195 ft 509 kts 96°
2026-04-25 19:32 50.97970 -13.39790 37196 ft 508 kts 96°
2026-04-25 19:33 50.97492 -13.26733 37187 ft 507 kts 96°
2026-04-25 19:33 50.97070 -13.15572 37211 ft 507 kts 96°
2026-04-25 19:34 50.96640 -13.04481 37215 ft 507 kts 96°
2026-04-25 19:34 50.96195 -12.93303 37204 ft 508 kts 97°
2026-04-25 19:35 50.95740 -12.82119 37191 ft 509 kts 97°
2026-04-25 19:35 50.95272 -12.70912 37208 ft 509 kts 97°
2026-04-25 19:36 50.94798 -12.59769 37207 ft 510 kts 97°
2026-04-25 19:36 50.94308 -12.48539 37212 ft 511 kts 97°
2026-04-25 19:37 50.93807 -12.37295 37204 ft 511 kts 97°
2026-04-25 19:37 50.93295 -12.26052 37206 ft 511 kts 97°
2026-04-25 19:38 50.92772 -12.14804 37205 ft 512 kts 97°
2026-04-25 19:38 50.92241 -12.03630 37217 ft 512 kts 97°
2026-04-25 19:39 50.91696 -11.92375 37219 ft 512 kts 97°
2026-04-25 19:39 50.91140 -11.81118 37203 ft 513 kts 97°
2026-04-25 19:40 50.90572 -11.69859 37220 ft 513 kts 97°
2026-04-25 19:40 50.89998 -11.58672 37221 ft 513 kts 97°
2026-04-25 19:41 50.89408 -11.47405 37220 ft 513 kts 97°
2026-04-25 19:41 50.88910 -11.38045 37220 ft 513 kts 97°
2026-04-25 19:42 50.88196 -11.24872 37221 ft 514 kts 97°
2026-04-25 19:42 50.87578 -11.13677 37222 ft 514 kts 97°
2026-04-25 19:43 50.86944 -11.02400 37220 ft 514 kts 98°
2026-04-25 19:43 50.86298 -10.91119 37223 ft 515 kts 98°
2026-04-25 19:44 50.85641 -10.79839 37211 ft 515 kts 98°
2026-04-25 19:44 50.84975 -10.68572 37226 ft 515 kts 98°
2026-04-25 19:45 50.84299 -10.57341 37217 ft 516 kts 98°
2026-04-25 19:45 50.83609 -10.46049 37225 ft 516 kts 98°
2026-04-25 19:46 50.82908 -10.34756 37211 ft 516 kts 98°
2026-04-25 19:46 50.82194 -10.23452 37225 ft 517 kts 98°
2026-04-25 19:47 50.81470 -10.12149 37223 ft 517 kts 98°
2026-04-25 19:47 50.80739 -10.00912 37224 ft 518 kts 98°
2026-04-25 19:48 50.79991 -9.89591 37223 ft 518 kts 98°
2026-04-25 19:48 50.79233 -9.78281 37223 ft 518 kts 98°
2026-04-25 19:49 50.78719 -9.70710 37227 ft 518 kts 98°
2026-04-25 19:49 50.77683 -9.55668 37225 ft 517 kts 98°
2026-04-25 19:50 50.76499 -9.38806 37207 ft 517 kts 98°
2026-04-25 19:51 50.75691 -9.27517 37222 ft 517 kts 98°
2026-04-25 19:51 50.74874 -9.16231 37213 ft 518 kts 98°
2026-04-25 19:52 50.74049 -9.05007 37224 ft 518 kts 99°
2026-04-25 19:52 50.73208 -8.93714 37226 ft 518 kts 99°
2026-04-25 19:53 50.72356 -8.82420 37230 ft 518 kts 98°
2026-04-25 19:53 50.71493 -8.71128 37230 ft 519 kts 99°
2026-04-25 19:54 50.70619 -8.59833 37223 ft 519 kts 99°
2026-04-25 19:54 50.69739 -8.48612 37228 ft 519 kts 99°
2026-04-25 19:55 50.68842 -8.37322 37224 ft 519 kts 99°
2026-04-25 19:55 50.67934 -8.26030 37235 ft 519 kts 99°
2026-04-25 19:56 50.67014 -8.14716 37419 ft 521 kts 99°
2026-04-25 19:56 50.66551 -8.09064 37737 ft 519 kts 99°
2026-04-25 19:56 50.66089 -8.03467 38097 ft 516 kts 99°
2026-04-25 19:56 50.65709 -7.97919 38430 ft 514 kts 94°
2026-04-25 19:57 50.65569 -7.92297 38715 ft 513 kts 92°
2026-04-25 19:57 50.65479 -7.86674 38899 ft 514 kts 92°
2026-04-25 19:57 50.65402 -7.81041 39070 ft 514 kts 92°
2026-04-25 19:58 50.65230 -7.69758 39198 ft 516 kts 92°
2026-04-25 19:58 50.65016 -7.58460 39225 ft 515 kts 92°
2026-04-25 19:59 50.64777 -7.47191 39231 ft 514 kts 92°
2026-04-25 19:59 50.64524 -7.35942 39225 ft 514 kts 92°
2026-04-25 20:00 50.64265 -7.24773 39228 ft 514 kts 92°
2026-04-25 20:00 50.63994 -7.13527 39236 ft 514 kts 92°
2026-04-25 20:01 50.63567 -6.96640 39233 ft 515 kts 92°
2026-04-25 20:01 50.63269 -6.85367 39231 ft 515 kts 92°
2026-04-25 20:02 50.62962 -6.74168 39232 ft 516 kts 92°
2026-04-25 20:02 50.62641 -6.62871 39231 ft 516 kts 93°
2026-04-25 20:03 50.62309 -6.51582 39231 ft 516 kts 92°
2026-04-25 20:03 50.61966 -6.40285 39231 ft 516 kts 92°
2026-04-25 20:04 50.61613 -6.28999 39231 ft 516 kts 93°
2026-04-25 20:04 50.61251 -6.17788 39234 ft 516 kts 93°
2026-04-25 20:05 50.60876 -6.06502 39231 ft 516 kts 93°
2026-04-25 20:05 50.60490 -5.95231 39232 ft 515 kts 93°
2026-04-25 20:06 50.60094 -5.83973 39230 ft 515 kts 93°
2026-04-25 20:06 50.59687 -5.72732 39226 ft 514 kts 93°
2026-04-25 20:07 50.59274 -5.61594 39228 ft 514 kts 93°
2026-04-25 20:07 50.58845 -5.50350 39229 ft 514 kts 93°
2026-04-25 20:08 50.58407 -5.39138 39221 ft 513 kts 93°
2026-04-25 20:08 50.57958 -5.27925 39219 ft 513 kts 93°
2026-04-25 20:09 50.57502 -5.16793 39217 ft 513 kts 93°
2026-04-25 20:09 50.57032 -5.05593 39214 ft 513 kts 94°
2026-04-25 20:10 50.56551 -4.94392 39214 ft 513 kts 94°
2026-04-25 20:10 50.56060 -4.83190 39216 ft 514 kts 94°
2026-04-25 20:11 50.55560 -4.72060 39220 ft 514 kts 94°
2026-04-25 20:11 50.55047 -4.60850 39227 ft 514 kts 94°
2026-04-25 20:12 50.54523 -4.49654 39226 ft 514 kts 94°
2026-04-25 20:12 50.54170 -4.42238 39223 ft 514 kts 94°
2026-04-25 20:13 50.53446 -4.27333 39225 ft 514 kts 94°
2026-04-25 20:13 50.52891 -4.16143 39226 ft 513 kts 94°
2026-04-25 20:14 50.52327 -4.04971 39228 ft 513 kts 94°
2026-04-25 20:14 50.52262 -3.93805 39228 ft 510 kts 84°
2026-04-25 20:15 50.53336 -3.82894 39232 ft 508 kts 78°
2026-04-25 20:15 50.54617 -3.71969 39228 ft 508 kts 78°
2026-04-25 20:16 50.55828 -3.61021 39231 ft 508 kts 79°
2026-04-25 20:16 50.57001 -3.50135 39231 ft 508 kts 79°
2026-04-25 20:17 50.58638 -3.39360 39238 ft 505 kts 71°
2026-04-25 20:17 50.60704 -3.28788 39248 ft 505 kts 71°
2026-04-25 20:18 50.62754 -3.18195 39226 ft 506 kts 72°
2026-04-25 20:18 50.64755 -3.07580 39220 ft 506 kts 72°
2026-04-25 20:19 50.66710 -2.96936 39226 ft 506 kts 75°
2026-04-25 20:19 50.68236 -2.86188 39224 ft 506 kts 77°
2026-04-25 20:20 50.69597 -2.75307 39238 ft 506 kts 78°
2026-04-25 20:20 50.70976 -2.64423 39230 ft 506 kts 78°
2026-04-25 20:21 50.72387 -2.53558 39230 ft 506 kts 78°
2026-04-25 20:21 50.73805 -2.42691 39233 ft 505 kts 78°
2026-04-25 20:22 50.74738 -2.35489 39233 ft 505 kts 78°
2026-04-25 20:22 50.76607 -2.20935 39238 ft 506 kts 78°
2026-04-25 20:23 50.77981 -2.10119 39235 ft 505 kts 78°
2026-04-25 20:23 50.79353 -1.99225 39234 ft 506 kts 78°
2026-04-25 20:24 50.80716 -1.88322 39237 ft 505 kts 78°
2026-04-25 20:24 50.82068 -1.77415 39239 ft 506 kts 78°
2026-04-25 20:25 50.83402 -1.66575 39239 ft 506 kts 78°
2026-04-25 20:25 50.84736 -1.55646 39239 ft 506 kts 78°
2026-04-25 20:26 50.86058 -1.44718 39239 ft 506 kts 78°
2026-04-25 20:26 50.87371 -1.33779 39247 ft 506 kts 79°
2026-04-25 20:27 50.88673 -1.22836 39240 ft 506 kts 79°
2026-04-25 20:27 50.89957 -1.11957 39237 ft 506 kts 79°
2026-04-25 20:28 50.91239 -1.00998 39236 ft 506 kts 79°
2026-04-25 20:28 50.92510 -0.90044 39231 ft 506 kts 79°
2026-04-25 20:29 50.93769 -0.79093 39229 ft 506 kts 79°
2026-04-25 20:29 50.95024 -0.68090 39224 ft 506 kts 79°
2026-04-25 20:30 50.96257 -0.57181 39222 ft 506 kts 79°
2026-04-25 20:30 50.97488 -0.46191 39219 ft 506 kts 79°
2026-04-25 20:31 50.98709 -0.35191 39216 ft 506 kts 79°
2026-04-25 20:31 50.99921 -0.24179 39236 ft 506 kts 79°
2026-04-25 20:32 51.01121 -0.13173 39237 ft 506 kts 79°
2026-04-25 20:32 51.02303 -0.02230 39239 ft 506 kts 79°
2026-04-25 20:33 51.03483 0.08793 39258 ft 506 kts 79°
2026-04-25 20:33 51.04267 0.16178 39263 ft 506 kts 79°
2026-04-25 20:34 51.05813 0.30868 39284 ft 506 kts 80°
2026-04-25 20:34 51.06954 0.41836 39292 ft 506 kts 80°
2026-04-25 20:35 51.08093 0.52887 39286 ft 506 kts 80°
2026-04-25 20:35 51.09221 0.63933 39279 ft 506 kts 80°
2026-04-25 20:36 51.10337 0.74971 39268 ft 505 kts 80°
2026-04-25 20:36 51.11442 0.86010 39258 ft 505 kts 80°
2026-04-25 20:37 51.12536 0.97048 39247 ft 505 kts 80°
2026-04-25 20:37 51.13617 1.08070 39240 ft 505 kts 80°
2026-04-25 20:38 51.14685 1.19057 39244 ft 504 kts 80°
2026-04-25 20:38 51.15746 1.30089 39244 ft 504 kts 81°
2026-04-25 20:39 51.16146 1.41226 39245 ft 505 kts 92°
2026-04-25 20:39 51.15785 1.48598 39256 ft 504 kts 94°
2026-04-25 20:40 51.14970 1.63408 39249 ft 504 kts 94°
2026-04-25 20:40 51.14403 1.74534 39248 ft 504 kts 94°
2026-04-25 20:41 51.13843 1.85660 39245 ft 504 kts 94°
2026-04-25 20:41 51.13270 1.96777 39245 ft 504 kts 94°
2026-04-25 20:42 51.12683 2.07889 39241 ft 504 kts 94°
2026-04-25 20:42 51.12090 2.18932 39245 ft 504 kts 94°
2026-04-25 20:43 51.11485 2.30042 39241 ft 504 kts 94°
2026-04-25 20:43 51.10869 2.41145 39247 ft 504 kts 94°
2026-04-25 20:44 51.10244 2.52245 39239 ft 504 kts 94°
2026-04-25 20:44 51.09591 2.63269 39240 ft 504 kts 97°
2026-04-25 20:45 51.08140 2.74156 39241 ft 504 kts 104°
2026-04-25 20:45 51.06298 2.84909 39242 ft 504 kts 105°
2026-04-25 20:46 51.04457 2.95669 39239 ft 504 kts 105°
2026-04-25 20:46 51.02640 3.06437 39234 ft 505 kts 105°
2026-04-25 20:47 51.00840 3.17128 39230 ft 505 kts 105°
2026-04-25 20:47 50.99019 3.27893 39227 ft 505 kts 105°
2026-04-25 20:48 50.97184 3.38653 39220 ft 505 kts 105°
2026-04-25 20:48 50.95339 3.49405 39216 ft 505 kts 105°
2026-04-25 20:49 50.93481 3.60160 39210 ft 506 kts 105°
2026-04-25 20:49 50.91669 3.70586 39211 ft 506 kts 105°
2026-04-25 20:50 50.89790 3.81331 39210 ft 506 kts 105°
2026-04-25 20:50 50.87902 3.92070 39207 ft 506 kts 105°
2026-04-25 20:51 50.86114 4.02173 39210 ft 506 kts 105°
2026-04-25 20:51 50.84205 4.12905 39226 ft 507 kts 105°
2026-04-25 20:52 50.82936 4.20006 39232 ft 507 kts 106°
2026-04-25 20:52 50.80372 4.34260 39235 ft 506 kts 106°
2026-04-25 20:53 50.78432 4.44969 39232 ft 507 kts 106°
2026-04-25 20:53 50.76482 4.55672 39234 ft 507 kts 106°
2026-04-25 20:54 50.74521 4.66375 39232 ft 508 kts 106°
2026-04-25 20:54 50.72561 4.77011 39209 ft 508 kts 106°
2026-04-25 20:55 50.70574 4.87728 39215 ft 509 kts 107°
2026-04-25 20:55 50.68576 4.98445 39213 ft 509 kts 107°
2026-04-25 20:56 50.66569 5.09146 39215 ft 510 kts 107°
2026-04-25 20:56 50.64890 5.18055 39210 ft 510 kts 107°
2026-04-25 20:57 50.62530 5.30502 39213 ft 510 kts 107°
2026-04-25 20:57 50.60490 5.41199 39210 ft 510 kts 107°
2026-04-25 20:58 50.58439 5.51885 39210 ft 510 kts 107°
2026-04-25 20:58 50.56733 5.60733 39203 ft 510 kts 107°
2026-04-25 20:59 50.54665 5.71406 39200 ft 510 kts 107°
2026-04-25 20:59 50.52249 5.83796 39193 ft 510 kts 107°
2026-04-25 21:00 50.50854 5.90915 39194 ft 510 kts 107°
2026-04-25 21:01 50.47364 6.08610 39179 ft 510 kts 107°
2026-04-25 21:01 50.45252 6.19241 39175 ft 510 kts 108°
2026-04-25 21:02 50.43131 6.29870 39177 ft 511 kts 108°
2026-04-25 21:02 50.41148 6.40482 39169 ft 511 kts 103°
2026-04-25 21:03 50.39652 6.51363 39175 ft 511 kts 102°
2026-04-25 21:03 50.38182 6.62258 39169 ft 511 kts 102°
2026-04-25 21:04 50.36671 6.73154 39176 ft 512 kts 102°
2026-04-25 21:04 50.35133 6.84041 39187 ft 512 kts 102°
2026-04-25 21:05 50.33593 6.94845 39188 ft 513 kts 102°
2026-04-25 21:05 50.32029 7.05746 39184 ft 514 kts 102°
2026-04-25 21:06 50.30454 7.16661 39192 ft 515 kts 102°
2026-04-25 21:06 50.28866 7.27587 39186 ft 515 kts 102°
2026-04-25 21:07 50.27268 7.38501 39187 ft 516 kts 102°
2026-04-25 21:07 50.25666 7.49370 39182 ft 516 kts 102°
2026-04-25 21:08 50.24044 7.60307 39172 ft 517 kts 102°
2026-04-25 21:08 50.22418 7.71240 39170 ft 517 kts 102°
2026-04-25 21:09 50.19972 7.87630 39169 ft 517 kts 102°
2026-04-25 21:09 50.18327 7.98552 39169 ft 517 kts 102°
2026-04-25 21:10 50.16683 8.09392 39156 ft 517 kts 102°
2026-04-25 21:10 50.15017 8.20299 39168 ft 517 kts 102°
2026-04-25 21:11 50.13341 8.31198 39166 ft 517 kts 102°
2026-04-25 21:11 50.11655 8.42091 39174 ft 518 kts 102°
2026-04-25 21:12 50.09919 8.52982 39165 ft 519 kts 105°
2026-04-25 21:12 50.07663 8.61641 39167 ft 520 kts 117°
2026-04-25 21:13 50.03127 8.72643 39175 ft 520 kts 127°
2026-04-25 21:13 49.98822 8.81705 39146 ft 521 kts 127°
2026-04-25 21:14 49.94531 8.90790 39146 ft 521 kts 126°
2026-04-25 21:14 49.90261 8.99889 39154 ft 522 kts 126°
2026-04-25 21:15 49.86018 9.08927 39159 ft 522 kts 126°
2026-04-25 21:15 49.81739 9.18007 39146 ft 522 kts 126°
2026-04-25 21:16 49.77452 9.27065 39143 ft 521 kts 126°
2026-04-25 21:16 49.73168 9.36083 39151 ft 520 kts 126°
2026-04-25 21:17 49.68909 9.45020 39144 ft 520 kts 127°
2026-04-25 21:17 49.64619 9.53994 39152 ft 520 kts 126°
2026-04-25 21:18 49.60315 9.62965 39146 ft 520 kts 126°
2026-04-25 21:18 49.56001 9.71926 39111 ft 521 kts 127°
2026-04-25 21:19 49.51682 9.80869 39131 ft 521 kts 127°
2026-04-25 21:19 49.47383 9.89740 39142 ft 521 kts 126°
2026-04-25 21:20 49.43820 9.97308 39134 ft 521 kts 122°
2026-04-25 21:20 49.40060 10.08849 39140 ft 520 kts 112°
2026-04-25 21:21 49.37202 10.19058 39138 ft 521 kts 112°
2026-04-25 21:21 49.34296 10.29245 39141 ft 522 kts 112°
2026-04-25 21:22 49.31369 10.39345 39137 ft 522 kts 112°
2026-04-25 21:22 49.28405 10.49500 39140 ft 522 kts 112°
2026-04-25 21:23 49.25433 10.59645 39135 ft 522 kts 113°
2026-04-25 21:23 49.22458 10.69763 39145 ft 521 kts 113°
2026-04-25 21:24 49.19477 10.79864 39160 ft 521 kts 113°
2026-04-25 21:24 49.16511 10.89873 39147 ft 520 kts 113°
2026-04-25 21:25 49.13517 10.99936 39134 ft 520 kts 113°
2026-04-25 21:25 49.10515 11.09981 39125 ft 520 kts 113°
2026-04-25 21:26 49.07507 11.20008 39114 ft 521 kts 113°
2026-04-25 21:26 49.04477 11.30065 39110 ft 521 kts 113°
2026-04-25 21:27 49.01463 11.40028 39129 ft 521 kts 113°
2026-04-25 21:27 48.98418 11.50051 39114 ft 522 kts 113°
2026-04-25 21:28 48.95359 11.60081 39115 ft 522 kts 113°
2026-04-25 21:28 48.92314 11.70026 39095 ft 522 kts 114°
2026-04-25 21:29 48.89243 11.80014 39103 ft 521 kts 114°
2026-04-25 21:29 48.86168 11.89976 39128 ft 521 kts 114°
2026-04-25 21:30 48.83083 11.99930 39107 ft 521 kts 114°
2026-04-25 21:30 48.80510 12.08205 39111 ft 521 kts 114°
2026-04-25 21:31 48.76946 12.19643 38895 ft 508 kts 114°
2026-04-25 21:31 48.75438 12.24463 38368 ft 504 kts 114°
2026-04-25 21:31 48.73936 12.29248 37769 ft 501 kts 114°
2026-04-25 21:32 48.72443 12.33994 37232 ft 498 kts 114°
2026-04-25 21:32 48.70955 12.38716 36738 ft 494 kts 114°
2026-04-25 21:32 48.69480 12.43384 36280 ft 490 kts 114°
2026-04-25 21:32 48.68017 12.48006 35836 ft 485 kts 114°
2026-04-25 21:33 48.66562 12.52594 35390 ft 482 kts 114°
2026-04-25 21:33 48.65136 12.57084 34956 ft 478 kts 114°
2026-04-25 21:33 48.63701 12.61596 34516 ft 475 kts 114°
2026-04-25 21:33 48.62274 12.66074 34079 ft 471 kts 114°
2026-04-25 21:34 48.60855 12.70517 33600 ft 468 kts 114°
2026-04-25 21:34 48.59526 12.74978 33143 ft 462 kts 108°
2026-04-25 21:34 48.58140 12.84311 33093 ft 455 kts 93°
2026-04-25 21:35 48.57939 12.93780 33103 ft 456 kts 87°
2026-04-25 21:35 48.57859 13.03367 33096 ft 457 kts 87°
2026-04-25 21:36 48.57749 13.12960 33086 ft 457 kts 88°
2026-04-25 21:36 48.57609 13.22552 33083 ft 456 kts 88°
2026-04-25 21:37 48.57481 13.30513 33087 ft 456 kts 88°
2026-04-25 21:37 48.57292 13.41619 33082 ft 455 kts 88°
2026-04-25 21:38 48.57122 13.51154 32761 ft 454 kts 88°
2026-04-25 21:38 48.57036 13.55938 31999 ft 458 kts 88°
2026-04-25 21:38 48.56946 13.60765 31286 ft 460 kts 88°
2026-04-25 21:39 48.56852 13.65599 30613 ft 461 kts 88°
2026-04-25 21:39 48.56755 13.70442 29910 ft 462 kts 88°
2026-04-25 21:39 48.56658 13.75287 29223 ft 461 kts 88°
2026-04-25 21:39 48.56561 13.80040 28683 ft 457 kts 88°
2026-04-25 21:40 48.56461 13.84803 28190 ft 451 kts 89°
2026-04-25 21:40 48.56360 13.89513 27674 ft 447 kts 89°
2026-04-25 21:40 48.56258 13.94190 27026 ft 446 kts 89°
2026-04-25 21:40 48.56156 13.98875 26352 ft 447 kts 89°
2026-04-25 21:41 48.56051 14.03557 25710 ft 446 kts 89°
2026-04-25 21:41 48.55944 14.08235 25092 ft 445 kts 89°
2026-04-25 21:41 48.55835 14.12894 24546 ft 442 kts 89°
2026-04-25 21:41 48.55725 14.17509 24074 ft 438 kts 89°
2026-04-25 21:42 48.55615 14.22076 23557 ft 435 kts 89°
2026-04-25 21:42 48.55504 14.26595 22834 ft 436 kts 89°
2026-04-25 21:42 48.55395 14.31161 22133 ft 435 kts 89°
2026-04-25 21:42 48.55287 14.35708 21539 ft 432 kts 89°
2026-04-25 21:43 48.55176 14.40226 21007 ft 429 kts 89°
2026-04-25 21:43 48.55061 14.44710 20495 ft 426 kts 89°
2026-04-25 21:43 48.54944 14.49163 19963 ft 424 kts 90°
2026-04-25 21:43 48.54825 14.53601 19443 ft 422 kts 90°
2026-04-25 21:44 48.54703 14.58013 18955 ft 420 kts 90°
2026-04-25 21:44 48.54582 14.62350 18483 ft 418 kts 90°
2026-04-25 21:44 48.54335 14.71061 17462 ft 413 kts 90°
2026-04-25 21:45 48.54210 14.75375 17115 ft 411 kts 90°
2026-04-25 21:45 48.54127 14.78234 17041 ft 412 kts 90°
2026-04-25 21:45 48.53956 14.83992 17037 ft 410 kts 90°
2026-04-25 21:45 48.53829 14.88229 17037 ft 410 kts 90°
2026-04-25 21:46 48.53698 14.92512 17042 ft 409 kts 90°
2026-04-25 21:46 48.53564 14.96862 17051 ft 409 kts 90°
2026-04-25 21:46 48.53432 15.01094 17054 ft 409 kts 90°
2026-04-25 21:46 48.53297 15.05383 17033 ft 409 kts 90°
2026-04-25 21:47 48.53161 15.09676 17048 ft 410 kts 90°
2026-04-25 21:47 48.53024 15.13969 17054 ft 410 kts 90°
2026-04-25 21:47 48.52882 15.18274 17045 ft 411 kts 90°
2026-04-25 21:47 48.52739 15.22582 17033 ft 411 kts 90°
2026-04-25 21:48 48.52594 15.26895 17036 ft 412 kts 90°
2026-04-25 21:48 48.52389 15.31201 17023 ft 412 kts 95°
2026-04-25 21:48 48.51844 15.35431 16859 ft 410 kts 104°
2026-04-25 21:48 48.51058 15.39482 16450 ft 406 kts 105°
2026-04-25 21:49 48.50262 15.43572 15892 ft 406 kts 105°
2026-04-25 21:49 48.49477 15.47655 15383 ft 404 kts 104°
2026-04-25 21:49 48.48703 15.51704 14882 ft 400 kts 104°
2026-04-25 21:49 48.47938 15.55727 14365 ft 398 kts 104°
2026-04-25 21:50 48.47179 15.59731 13808 ft 397 kts 104°
2026-04-25 21:50 48.46424 15.63715 13295 ft 394 kts 104°
2026-04-25 21:50 48.45671 15.67681 13059 ft 395 kts 105°
2026-04-25 21:50 48.45170 15.70314 13024 ft 394 kts 105°
2026-04-25 21:51 48.44164 15.75597 13029 ft 392 kts 105°
2026-04-25 21:51 48.43410 15.79546 13015 ft 393 kts 105°
2026-04-25 21:51 48.42652 15.83504 13012 ft 393 kts 105°
2026-04-25 21:51 48.41904 15.87404 13015 ft 393 kts 105°
2026-04-25 21:52 48.41149 15.91332 12836 ft 390 kts 105°
2026-04-25 21:52 48.40408 15.95175 12384 ft 369 kts 105°
2026-04-25 21:52 48.39695 15.98865 11787 ft 367 kts 105°
2026-04-25 21:52 48.38989 16.02517 11438 ft 360 kts 105°
2026-04-25 21:53 48.38293 16.06111 11060 ft 356 kts 105°
2026-04-25 21:53 48.37603 16.09671 10639 ft 353 kts 105°
2026-04-25 21:53 48.36915 16.13209 10195 ft 352 kts 105°
2026-04-25 21:53 48.36230 16.16727 9755 ft 350 kts 105°
2026-04-25 21:54 48.35547 16.20229 9290 ft 347 kts 105°
2026-04-25 21:54 48.34878 16.23649 8874 ft 344 kts 105°
2026-04-25 21:54 48.34205 16.27084 8464 ft 341 kts 105°
2026-04-25 21:54 48.33539 16.30481 8075 ft 337 kts 105°
2026-04-25 21:55 48.32874 16.33870 7553 ft 338 kts 105°
2026-04-25 21:55 48.32209 16.37253 7130 ft 336 kts 105°
2026-04-25 21:55 48.31550 16.40596 6766 ft 331 kts 106°
2026-04-25 21:55 48.30896 16.43905 6329 ft 330 kts 106°
2026-04-25 21:56 48.30241 16.47207 6038 ft 330 kts 105°
2026-04-25 21:56 48.29720 16.49344 6004 ft 332 kts 116°
2026-04-25 21:56 48.27688 16.52704 6007 ft 327 kts 146°
2026-04-25 21:56 48.25817 16.54682 6011 ft 330 kts 146°
2026-04-25 21:57 48.24015 16.56693 5986 ft 306 kts 144°
2026-04-25 21:57 48.22408 16.58515 5967 ft 276 kts 144°
2026-04-25 21:57 48.20920 16.60197 5996 ft 265 kts 145°
2026-04-25 21:57 48.19452 16.61850 5996 ft 263 kts 145°
2026-04-25 21:58 48.18125 16.63697 5983 ft 262 kts 123°
2026-04-25 21:58 48.17317 16.66117 6010 ft 262 kts 114°
2026-04-25 21:58 48.16526 16.68617 6020 ft 266 kts 115°
2026-04-25 21:58 48.15714 16.71099 5940 ft 266 kts 115°
2026-04-25 21:59 48.14905 16.73561 5630 ft 268 kts 115°
2026-04-25 21:59 48.14078 16.76067 5303 ft 269 kts 115°
2026-04-25 21:59 48.13248 16.78580 4986 ft 270 kts 115°
2026-04-25 22:00 48.11543 16.83587 4316 ft 266 kts 123°
2026-04-25 22:00 48.10236 16.85424 3942 ft 254 kts 155°
2026-04-25 22:00 48.08552 16.86017 3621 ft 249 kts 188°
2026-04-25 22:00 48.06947 16.85298 3325 ft 237 kts 220°
2026-04-25 22:01 48.05887 16.83548 2991 ft 223 kts 252°
2026-04-25 22:01 48.05500 16.81432 2770 ft 199 kts 265°
2026-04-25 22:01 48.05245 16.79525 2707 ft 180 kts 265°
2026-04-25 22:01 48.05076 16.78323 2689 ft 173 kts 264°
2026-04-25 22:02 48.05162 16.76093 2719 ft 161 kts 293°
2026-04-25 22:02 48.05557 16.74499 2714 ft 165 kts 290°
2026-04-25 22:02 48.05952 16.72892 2693 ft 164 kts 294°
2026-04-25 22:02 48.06420 16.71331 2583 ft 166 kts 296°
2026-04-25 22:03 48.06906 16.69820 2367 ft 154 kts 296°
2026-04-25 22:03 48.07349 16.68460 2196 ft 136 kts 297°
2026-04-25 22:03 48.07739 16.67265 1986 ft 120 kts 296°
2026-04-25 22:03 48.08082 16.66211 1869 ft 109 kts 296°
2026-04-25 22:04 48.08413 16.65198 1749 ft 109 kts 296°
2026-04-25 22:04 48.08742 16.64187 1591 ft 108 kts 298°
2026-04-25 22:04 48.09083 16.63156 1417 ft 115 kts 295°
2026-04-25 22:04 48.09417 16.62069 1258 ft 117 kts 297°
2026-04-25 22:05 48.09780 16.60971 1092 ft 118 kts 296°
2026-04-25 22:05 48.10131 16.59857 959 ft 119 kts 299°
2026-04-25 22:05 48.10515 16.58757 769 ft 118 kts 296°
2026-04-25 22:05 48.10872 16.57667 670 ft 115 kts 294°
2026-04-25 22:06 48.11198 16.56661 625 ft 96 kts 296°
2026-04-25 22:06 48.11436 16.55928 623 ft 61 kts 296°
2026-04-25 22:06 48.11587 16.55476 625 ft 42 kts 302°
2026-04-25 22:06 48.11752 16.55209 628 ft 18 kts 319°
2026-04-25 22:07 48.11818 16.55150 626 ft 8 kts 340°
2026-04-25 22:07 48.11848 16.55143 623 ft 0 kts 351°
2026-04-25 22:07 48.11852 16.55143 621 ft 7 kts 358°
2026-04-25 22:07 48.11924 16.55182 624 ft 9 kts 24°
2026-04-25 22:08 48.11971 16.55169 628 ft 6 kts 330°
2026-04-25 22:08 48.11993 16.55113 620 ft 6 kts 297°
2026-04-25 22:08 48.12016 16.55045 620 ft 9 kts 295°
2026-04-25 22:08 48.12048 16.54999 628 ft 6 kts 349°
2026-04-25 22:09 48.12086 16.55019 625 ft 5 kts 42°
2026-04-25 22:09 48.12103 16.55039 628 ft 1 kts 36°
2026-04-25 22:09 48.12117 16.55051 623 ft 2 kts 30°
2026-04-25 22:09 48.12120 16.55053 623 ft 0 kts 27°
2026-04-25 22:10 48.12117 16.55053 623 ft 0 kts 26°